| time (UTC) | temp F | wind direction | speed knots | gust knots | rain 1hr in | rain 24hr in | rain mn in | humidity % | barometer mb |
| 20260904124606 | 46 | 180 | 1.7 | 2.6 | 0.01 | 0.01 | 0.01 | 96 | 1013.5 |
| 20260904123034 | 46 | 177 | 1.7 | 4.3 | 0.01 | 0.01 | 0.01 | 96 | 1013.4 |
| 20260904121531 | 46 | 145 | 2.6 | 3.5 | 0.01 | 0.01 | 0.01 | 96 | 1013.3 |
| 20260904113031 | 46 | 180 | 0.9 | 2.6 | 0.00 | 0.00 | 0.00 | 95 | 1013.1 |
| 20260904111535 | 46 | 180 | 0.0 | 2.6 | 0.00 | 0.00 | 0.00 | 95 | 1013.0 |
| 20260904110034 | 46 | 180 | 0.9 | 2.6 | 0.00 | 0.00 | 0.00 | 95 | 1012.8 |
| 20260904104531 | 46 | 157 | 0.9 | 3.5 | 0.00 | 0.00 | 0.00 | 95 | 1012.7 |
| 20260904103036 | 46 | 173 | 1.7 | 2.6 | 0.00 | 0.00 | 0.00 | 95 | 1012.6 |
| 20260904101608 | 46 | 157 | 1.7 | 3.5 | 0.00 | 0.00 | 0.00 | 95 | 1012.5 |
| 20260904100035 | 46 | 179 | 0.9 | 2.6 | 0.00 | 0.00 | 0.00 | 95 | 1012.4 |
| 20260904094532 | 46 | 181 | 1.7 | 3.5 | 0.00 | 0.00 | 0.00 | 95 | 1012.3 |
| 20260904093038 | 46 | 166 | 2.6 | 4.3 | 0.00 | 0.00 | 0.00 | 95 | 1012.3 |
| 20260904091530 | 46 | 141 | 3.5 | 4.3 | 0.00 | 0.00 | 0.00 | 95 | 1012.3 |
| 20260904090107 | 46 | 159 | 1.7 | 4.3 | 0.00 | 0.00 | 0.00 | 95 | 1012.3 |
| 20260904084609 | 45 | 178 | 3.5 | 7.0 | 0.00 | 0.00 | 0.00 | 95 | 1012.3 |
| 20260904083035 | 45 | 192 | 2.6 | 4.3 | 0.00 | 0.00 | 0.00 | 95 | 1012.1 |
| 20260904081530 | 45 | 176 | 2.6 | 6.1 | 0.00 | 0.00 | 0.00 | 95 | 1012.2 |
| 20260904080105 | 45 | 180 | 0.9 | 3.5 | 0.00 | 0.00 | 0.00 | 95 | 1012.2 |
| 20260904074531 | 46 | 180 | 1.7 | 2.6 | 0.00 | 0.00 | 0.00 | 95 | 1012.3 |
| 20260904073036 | 46 | 130 | 0.9 | 3.5 | 0.00 | 0.00 | 0.00 | 94 | 1012.2 |
| 20260904071535 | 46 | 192 | 0.9 | 3.5 | 0.00 | 0.00 | 0.00 | 94 | 1012.2 |
| 20260904070109 | 46 | 162 | 0.9 | 3.5 | 0.00 | 0.00 | 0.00 | 94 | 1012.1 |
| 20260904064535 | 46 | 157 | 0.0 | 1.7 | 0.00 | 0.00 | 0.00 | 94 | 1012.1 |
| 20260904063107 | 46 | 183 | 2.6 | 4.3 | 0.00 | 0.00 | 0.00 | 94 | 1012.1 |
| 20260904061535 | 46 | 201 | 2.6 | 5.2 | 0.00 | 0.00 | 0.00 | 94 | 1012.1 |
| 20260904054651 | 47 | 143 | 2.6 | 4.3 | 0.00 | 0.00 | 0.00 | 94 | 1012.0 |
| 20260904053032 | 47 | 186 | 1.7 | 3.5 | 0.00 | 0.00 | 0.00 | 94 | 1012.1 |
| 20260904043105 | 49 | 90 | 0.9 | 2.6 | 0.00 | 0.00 | 0.00 | 93 | 1012.4 |
| 20260904041533 | 49 | 169 | 0.9 | 3.5 | 0.00 | 0.00 | 0.00 | 92 | 1012.4 |
| 20260904040034 | 49 | 213 | 1.7 | 3.5 | 0.00 | 0.00 | 0.00 | 92 | 1012.3 |
| 20260904034536 | 49 | 178 | 1.7 | 5.2 | 0.00 | 0.00 | 0.00 | 91 | 1012.0 |
| 20260904033033 | 49 | 157 | 0.9 | 2.6 | 0.00 | 0.00 | 0.00 | 91 | 1012.0 |
| 20260904031535 | 49 | 157 | 1.7 | 2.6 | 0.00 | 0.01 | 0.00 | 90 | 1012.0 |
| 20260904030107 | 49 | 158 | 1.7 | 3.5 | 0.00 | 0.02 | 0.00 | 89 | 1011.9 |
| 20260904013148 | 53 | 270 | 0.9 | 2.6 | 0.00 | 0.14 | 0.00 | 87 | 1011.7 |
| 20260904011606 | 53 | 268 | 0.9 | 3.5 | 0.00 | 0.14 | 0.00 | 86 | 1011.7 |
| 20260904010035 | 53 | 266 | 1.7 | 5.2 | 0.00 | 0.16 | 0.00 | 85 | 1011.5 |
| 20260904004533 | 53 | 243 | 1.7 | 4.3 | 0.00 | 0.18 | 0.00 | 84 | 1011.4 |
| 20260904003030 | 53 | 251 | 1.7 | 4.3 | 0.00 | 0.19 | 0.00 | 82 | 1011.4 |
| 20260904001607 | 54 | 296 | 1.7 | 4.3 | 0.00 | 0.19 | 0.00 | 80 | 1011.3 |
| 20260904000032 | 55 | 329 | 3.5 | 7.0 | 0.00 | 0.23 | 0.00 | 79 | 1011.4 |
| 20260903233031 | 56 | 357 | 3.5 | 6.1 | 0.00 | 0.24 | 0.00 | 78 | 1011.5 |
| 20260903231533 | 56 | 331 | 3.5 | 6.1 | 0.00 | 0.24 | 0.00 | 78 | 1011.6 |
| 20260903230032 | 57 | 337 | 3.5 | 8.7 | 0.00 | 0.25 | 0.00 | 75 | 1011.5 |
| 20260903223106 | 60 | 307 | 3.5 | 7.8 | 0.00 | 0.26 | 0.00 | 74 | 1011.5 |
| 20260903221530 | 60 | 277 | 1.7 | 6.1 | 0.00 | 0.27 | 0.00 | 78 | 1011.6 |
| 20260903220032 | 59 | 259 | 0.9 | 3.5 | 0.00 | 0.27 | 0.00 | 77 | 1011.7 |
| 20260903214532 | 59 | 304 | 1.7 | 5.2 | 0.00 | 0.28 | 0.00 | 77 | 1011.7 |
| 20260903213035 | 59 | 286 | 1.7 | 4.3 | 0.00 | 0.28 | 0.00 | 78 | 1011.7 |
| 20260903211536 | 59 | 283 | 2.6 | 6.1 | 0.00 | 0.28 | 0.00 | 78 | 1011.7 |
| 20260903210033 | 60 | 289 | 2.6 | 7.8 | 0.00 | 0.28 | 0.00 | 77 | 1011.7 |
| 20260903204533 | 60 | 308 | 4.3 | 9.6 | 0.00 | 0.30 | 0.00 | 79 | 1011.7 |
| 20260903203030 | 57 | 311 | 4.3 | 9.6 | 0.00 | 0.31 | 0.00 | 81 | 1011.8 |
| 20260903201535 | 57 | 300 | 2.6 | 7.0 | 0.00 | 0.32 | 0.00 | 80 | 1011.9 |
| 20260903200030 | 57 | 290 | 3.5 | 8.7 | 0.00 | 0.33 | 0.00 | 79 | 1011.9 |
| 20260903194643 | 59 | 329 | 4.3 | 8.7 | 0.00 | 0.33 | 0.00 | 78 | 1012.0 |
| 20260903193030 | 60 | 312 | 2.6 | 7.8 | 0.00 | 0.33 | 0.00 | 80 | 1012.2 |
| 20260903191531 | 59 | 353 | 4.3 | 7.8 | 0.00 | 0.33 | 0.00 | 81 | 1012.3 |
| 20260903190031 | 57 | 339 | 3.5 | 7.0 | 0.00 | 0.33 | 0.00 | 81 | 1012.5 |
| 20260903184531 | 55 | 15 | 3.5 | 6.1 | 0.00 | 0.33 | 0.00 | 81 | 1012.6 |
| 20260903183029 | 55 | 12 | 2.6 | 4.3 | 0.00 | 0.33 | 0.00 | 82 | 1012.6 |
| 20260903181535 | 55 | 319 | 1.7 | 5.2 | 0.00 | 0.33 | 0.00 | 84 | 1012.5 |
| 20260903180031 | 55 | 331 | 1.7 | 6.1 | 0.00 | 0.33 | 0.00 | 85 | 1012.6 |
| 20260903173035 | 53 | 346 | 3.5 | 6.1 | 0.00 | 0.33 | 0.00 | 88 | 1012.5 |
| 20260903170032 | 52 | 6 | 2.6 | 5.2 | 0.00 | 0.33 | 0.00 | 89 | 1012.6 |
| 20260903164606 | 50 | 307 | 1.7 | 5.2 | 0.00 | 0.33 | 0.00 | 91 | 1012.6 |
| 20260903161531 | 49 | 292 | 0.0 | 4.3 | 0.00 | 0.33 | 0.00 | 92 | 1012.6 |
| 20260903160105 | 49 | 332 | 0.0 | 3.5 | 0.00 | 0.33 | 0.00 | 92 | 1012.7 |
| 20260903154535 | 49 | 278 | 0.9 | 4.3 | 0.00 | 0.33 | 0.00 | 92 | 1012.6 |
| 20260903153029 | 48 | 196 | 1.7 | 4.3 | 0.00 | 0.33 | 0.00 | 92 | 1012.5 |
| 20260903150035 | 46 | 113 | 1.7 | 5.2 | 0.00 | 0.33 | 0.00 | 94 | 1012.6 |
| 20260903144606 | 46 | 175 | 2.6 | 6.1 | 0.00 | 0.33 | 0.00 | 95 | 1012.4 |
| 20260903143030 | 45 | 145 | 1.7 | 4.3 | 0.00 | 0.33 | 0.00 | 95 | 1012.3 |
| 20260903140044 | 44 | 155 | 3.5 | 6.1 | 0.00 | 0.33 | 0.00 | 94 | 1012.0 |
| 20260903134531 | 44 | 142 | 3.5 | 5.2 | 0.00 | 0.33 | 0.00 | 94 | 1012.0 |
| 20260903133106 | 44 | 133 | 1.7 | 5.2 | 0.00 | 0.33 | 0.00 | 94 | 1012.0 |
| 20260903130034 | 44 | 166 | 0.9 | 4.3 | 0.00 | 0.33 | 0.00 | 95 | 1011.9 |